Time,TemperatureF,DewpointF,PressureIn,WindDirection,WindDirectionDegrees,WindSpeedMPH,WindSpeedGustMPH,Humidity,HourlyPrecipIn,Conditions,Clouds,dailyrainin,SolarRadiationWatts/m^2,SoftwareType,DateUTC
2013-03-27 00:03:00,35.0,21.0,-100.00,NNW,337,3.0,9.0,57,0.00,,,0.00,0.000000,,2013-03-27 05:03:00,
2013-03-27 00:13:00,35.0,21.0,-100.00,NNW,337,3.0,9.0,57,0.00,,,0.00,0.000000,,2013-03-27 05:13:00,
2013-03-27 00:23:00,35.0,21.0,-100.00,NNW,337,3.0,9.0,57,0.00,,,0.00,0.000000,,2013-03-27 05:23:00,
2013-03-27 00:53:00,34.0,22.0,-100.00,NNW,337,3.0,7.0,62,0.00,,,0.00,0.000000,,2013-03-27 05:53:00,
2013-03-27 01:02:00,34.0,22.0,-100.00,NNW,337,3.0,7.0,62,0.00,,,0.00,0.000000,,2013-03-27 06:02:00,
2013-03-27 01:12:00,34.0,22.0,-100.00,NNW,337,3.0,7.0,62,0.00,,,0.00,0.000000,,2013-03-27 06:12:00,
2013-03-27 01:22:00,34.0,22.0,-100.00,NNW,337,3.0,7.0,62,0.00,,,0.00,0.000000,,2013-03-27 06:22:00,
2013-03-27 01:53:00,34.0,23.0,-100.00,North,4,3.0,6.0,63,0.00,,,0.00,0.000000,,2013-03-27 06:53:00,
2013-03-27 02:02:00,34.0,23.0,-100.00,North,4,3.0,6.0,63,0.00,,,0.00,0.000000,,2013-03-27 07:02:00,
2013-03-27 02:12:00,34.0,23.0,-100.00,North,4,3.0,6.0,63,0.00,,,0.00,0.000000,,2013-03-27 07:12:00,
2013-03-27 02:22:00,34.0,23.0,-100.00,North,4,3.0,6.0,63,0.00,,,0.00,0.000000,,2013-03-27 07:22:00,
2013-03-27 02:54:00,30.0,21.0,-100.00,NNW,343,1.0,4.0,68,0.00,,,0.00,0.000000,,2013-03-27 07:54:00,
2013-03-27 03:02:00,30.0,21.0,-100.00,NNW,343,1.0,4.0,68,0.00,,,0.00,0.000000,,2013-03-27 08:02:00,
2013-03-27 03:13:00,30.0,21.0,-100.00,NNW,343,1.0,4.0,68,0.00,,,0.00,0.000000,,2013-03-27 08:13:00,
2013-03-27 03:22:00,30.0,21.0,-100.00,NNW,343,1.0,4.0,68,0.00,,,0.00,0.000000,,2013-03-27 08:22:00,
2013-03-27 03:52:00,29.0,21.0,-100.00,NW,323,1.0,4.0,73,0.00,,,0.00,0.000000,,2013-03-27 08:52:00,
2013-03-27 04:02:00,29.0,21.0,-100.00,NW,323,1.0,4.0,73,0.00,,,0.00,0.000000,,2013-03-27 09:02:00,
2013-03-27 04:12:00,29.0,21.0,-100.00,NW,323,1.0,4.0,73,0.00,,,0.00,0.000000,,2013-03-27 09:12:00,
2013-03-27 04:22:00,29.0,21.0,-100.00,NW,323,1.0,4.0,73,0.00,,,0.00,0.000000,,2013-03-27 09:22:00,
2013-03-27 04:52:00,30.0,23.0,-100.00,North,351,3.0,4.0,74,0.00,,,0.00,0.000000,,2013-03-27 09:52:00,
2013-03-27 05:03:00,30.0,23.0,-100.00,North,351,3.0,4.0,74,0.00,,,0.00,0.000000,,2013-03-27 10:03:00,
2013-03-27 05:13:00,30.0,23.0,-100.00,North,351,3.0,4.0,74,0.00,,,0.00,0.000000,,2013-03-27 10:13:00,
2013-03-27 05:23:00,30.0,23.0,-100.00,North,351,3.0,4.0,74,0.00,,,0.00,0.000000,,2013-03-27 10:23:00,
2013-03-27 05:53:00,29.0,21.0,-100.00,NW,316,3.0,6.0,71,0.00,,,0.00,0.000000,,2013-03-27 10:53:00,
2013-03-27 06:03:00,29.0,21.0,-100.00,NW,316,3.0,6.0,71,0.00,,,0.00,0.000000,,2013-03-27 11:03:00,
2013-03-27 06:12:00,29.0,21.0,-100.00,NW,316,3.0,6.0,71,0.00,,,0.00,0.000000,,2013-03-27 11:12:00,
2013-03-27 06:22:00,29.0,21.0,-100.00,NW,316,3.0,6.0,71,0.00,,,0.00,0.000000,,2013-03-27 11:22:00,
2013-03-27 06:53:00,29.0,23.0,-100.00,NNW,339,3.0,5.0,78,0.00,,,0.00,0.000000,,2013-03-27 11:53:00,
2013-03-27 07:02:00,29.0,23.0,-100.00,NNW,339,3.0,5.0,78,0.00,,,0.00,0.000000,,2013-03-27 12:02:00,
2013-03-27 07:12:00,29.0,23.0,-100.00,NNW,339,3.0,5.0,78,0.00,,,0.00,0.000000,,2013-03-27 12:12:00,
2013-03-27 07:23:00,29.0,23.0,-100.00,NNW,339,3.0,5.0,78,0.00,,,0.00,0.000000,,2013-03-27 12:23:00,
2013-03-27 07:52:00,31.0,25.0,-100.00,NNW,331,3.0,6.0,78,0.00,,,0.00,0.000000,,2013-03-27 12:52:00,
2013-03-27 08:02:00,31.0,25.0,-100.00,NNW,331,3.0,6.0,78,0.00,,,0.00,0.000000,,2013-03-27 13:02:00,
2013-03-27 08:12:00,31.0,25.0,-100.00,NNW,331,3.0,6.0,78,0.00,,,0.00,0.000000,,2013-03-27 13:12:00,
2013-03-27 08:23:00,31.0,25.0,-100.00,NNW,331,3.0,6.0,78,0.00,,,0.00,0.000000,,2013-03-27 13:23:00,
2013-03-27 08:53:00,38.0,25.0,-100.00,NNW,342,5.0,9.0,60,0.00,,,0.00,0.000000,,2013-03-27 13:53:00,
2013-03-27 09:02:00,38.0,25.0,-100.00,NNW,342,5.0,9.0,60,0.00,,,0.00,0.000000,,2013-03-27 14:02:00,
2013-03-27 09:12:00,38.0,25.0,-100.00,NNW,342,5.0,9.0,60,0.00,,,0.00,0.000000,,2013-03-27 14:12:00,
2013-03-27 09:22:00,38.0,25.0,-100.00,NNW,342,5.0,9.0,60,0.00,,,0.00,0.000000,,2013-03-27 14:22:00,
2013-03-27 09:52:00,44.0,25.0,-100.00,NNE,21,7.0,13.0,47,0.00,,,0.00,0.000000,,2013-03-27 14:52:00,
2013-03-27 10:03:00,44.0,25.0,-100.00,NNE,21,7.0,13.0,47,0.00,,,0.00,0.000000,,2013-03-27 15:03:00,
2013-03-27 10:12:00,44.0,25.0,-100.00,NNE,21,7.0,13.0,47,0.00,,,0.00,0.000000,,2013-03-27 15:12:00,
2013-03-27 10:23:00,44.0,25.0,-100.00,NNE,21,7.0,13.0,47,0.00,,,0.00,0.000000,,2013-03-27 15:23:00,
2013-03-27 10:53:00,47.0,23.0,-100.00,NE,48,6.0,16.0,38,0.00,,,0.00,0.000000,,2013-03-27 15:53:00,
2013-03-27 11:03:00,47.0,23.0,-100.00,NE,48,6.0,16.0,38,0.00,,,0.00,0.000000,,2013-03-27 16:03:00,
2013-03-27 11:13:00,47.0,23.0,-100.00,NE,48,6.0,16.0,38,0.00,,,0.00,0.000000,,2013-03-27 16:13:00,
2013-03-27 11:22:00,47.0,23.0,-100.00,NE,48,6.0,16.0,38,0.00,,,0.00,0.000000,,2013-03-27 16:22:00,
2013-03-27 13:03:00,52.0,22.0,-100.00,North,351,7.0,13.0,30,-99.99,,,0.00,0.000000,,2013-03-27 18:03:00,
2013-03-27 13:12:00,52.0,22.0,-100.00,North,351,7.0,13.0,30,-99.99,,,0.00,0.000000,,2013-03-27 18:12:00,
2013-03-27 13:23:00,52.0,22.0,-100.00,North,351,7.0,13.0,30,-99.99,,,0.00,0.000000,,2013-03-27 18:23:00,
2013-03-27 13:53:00,57.0,24.0,-100.00,ENE,58,4.0,13.0,28,0.00,,,0.00,0.000000,,2013-03-27 18:53:00,
2013-03-27 14:03:00,57.0,24.0,-100.00,ENE,58,4.0,13.0,28,0.00,,,0.00,0.000000,,2013-03-27 19:03:00,
2013-03-27 14:12:00,57.0,24.0,-100.00,ENE,58,4.0,13.0,28,0.00,,,0.00,0.000000,,2013-03-27 19:12:00,
2013-03-27 14:22:00,57.0,24.0,-100.00,ENE,58,4.0,13.0,28,0.00,,,0.00,0.000000,,2013-03-27 19:22:00,
2013-03-27 14:52:00,56.0,23.0,-100.00,North,355,6.0,15.0,27,0.00,,,0.00,0.000000,,2013-03-27 19:52:00,
2013-03-27 15:03:00,56.0,23.0,-100.00,North,355,6.0,15.0,27,0.00,,,0.00,0.000000,,2013-03-27 20:03:00,
2013-03-27 15:12:00,56.0,23.0,-100.00,North,355,6.0,15.0,27,0.00,,,0.00,0.000000,,2013-03-27 20:12:00,
2013-03-27 15:22:00,56.0,23.0,-100.00,North,355,6.0,15.0,27,0.00,,,0.00,0.000000,,2013-03-27 20:22:00,
2013-03-27 15:52:00,59.0,20.0,-100.00,WNW,289,5.0,16.0,22,0.00,,,0.00,0.000000,,2013-03-27 20:52:00,
2013-03-27 16:02:00,59.0,20.0,-100.00,WNW,289,5.0,16.0,22,0.00,,,0.00,0.000000,,2013-03-27 21:02:00,
2013-03-27 16:12:00,59.0,20.0,-100.00,WNW,289,5.0,16.0,22,0.00,,,0.00,0.000000,,2013-03-27 21:12:00,
2013-03-27 16:23:00,59.0,20.0,-100.00,WNW,289,5.0,16.0,22,0.00,,,0.00,0.000000,,2013-03-27 21:23:00,
2013-03-27 16:52:00,59.0,20.0,-100.00,NW,316,6.0,14.0,22,0.00,,,0.00,0.000000,,2013-03-27 21:52:00,
2013-03-27 17:03:00,59.0,20.0,-100.00,NW,316,6.0,14.0,22,0.00,,,0.00,0.000000,,2013-03-27 22:03:00,
2013-03-27 17:12:00,59.0,20.0,-100.00,NW,316,6.0,14.0,22,0.00,,,0.00,0.000000,,2013-03-27 22:12:00,
2013-03-27 17:23:00,59.0,20.0,-100.00,NW,316,6.0,14.0,22,0.00,,,0.00,0.000000,,2013-03-27 22:23:00,
2013-03-27 17:53:00,59.0,21.0,-100.00,North,356,4.0,14.0,23,0.00,,,0.00,0.000000,,2013-03-27 22:53:00,
2013-03-27 18:03:00,59.0,21.0,-100.00,North,356,4.0,14.0,23,0.00,,,0.00,0.000000,,2013-03-27 23:03:00,
2013-03-27 18:12:00,59.0,21.0,-100.00,North,356,4.0,14.0,23,0.00,,,0.00,0.000000,,2013-03-27 23:12:00,
2013-03-27 18:22:00,59.0,21.0,-100.00,North,356,4.0,14.0,23,0.00,,,0.00,0.000000,,2013-03-27 23:22:00,
2013-03-27 18:52:00,56.0,21.0,-100.00,North,354,4.0,12.0,25,0.00,,,0.00,0.000000,,2013-03-27 23:52:00,
2013-03-27 19:02:00,56.0,21.0,-100.00,North,354,4.0,12.0,25,0.00,,,0.00,0.000000,,2013-03-28 00:02:00,
2013-03-27 19:12:00,56.0,21.0,-100.00,North,354,4.0,12.0,25,0.00,,,0.00,0.000000,,2013-03-28 00:12:00,
2013-03-27 19:22:00,56.0,21.0,-100.00,North,354,4.0,12.0,25,0.00,,,0.00,0.000000,,2013-03-28 00:22:00,